Time,TemperatureF,DewpointF,PressureIn,WindDirection,WindDirectionDegrees,WindSpeedMPH,WindSpeedGustMPH,Humidity,HourlyPrecipIn,Conditions,Clouds,dailyrainin,SolarRadiationWatts/m^2,SoftwareType,DateUTC
2013-07-31 00:02:00,56.0,56.0,-100.00,West,276,0.0,4.0,100,0.00,,,0.00,2.000000,,2013-07-31 07:02:00,
2013-07-31 00:32:00,56.0,56.0,-100.00,NW,305,0.0,3.0,100,0.00,,,0.00,2.000000,,2013-07-31 07:32:00,
2013-07-31 00:43:00,56.0,56.0,-100.00,NW,305,0.0,3.0,100,0.00,,,0.00,2.000000,,2013-07-31 07:43:00,
2013-07-31 00:52:00,56.0,56.0,-100.00,NW,305,0.0,3.0,100,0.00,,,0.00,2.000000,,2013-07-31 07:52:00,
2013-07-31 01:02:00,56.0,56.0,-100.00,NW,305,0.0,3.0,100,0.00,,,0.00,2.000000,,2013-07-31 08:02:00,
2013-07-31 01:33:00,56.0,56.0,-100.00,NW,323,1.0,3.0,100,0.00,,,0.00,2.000000,,2013-07-31 08:33:00,
2013-07-31 01:42:00,56.0,56.0,-100.00,NW,323,1.0,3.0,100,0.00,,,0.00,2.000000,,2013-07-31 08:42:00,
2013-07-31 01:53:00,56.0,56.0,-100.00,NW,323,1.0,3.0,100,0.00,,,0.00,2.000000,,2013-07-31 08:53:00,
2013-07-31 02:02:00,56.0,56.0,-100.00,NW,323,1.0,3.0,100,0.00,,,0.00,2.000000,,2013-07-31 09:02:00,
2013-07-31 02:44:00,54.0,54.0,-100.00,NW,321,0.0,5.0,100,0.00,,,0.00,3.000000,,2013-07-31 09:44:00,
2013-07-31 02:52:00,54.0,54.0,-100.00,NW,321,0.0,5.0,100,0.00,,,0.00,3.000000,,2013-07-31 09:52:00,
2013-07-31 03:02:00,54.0,54.0,-100.00,NW,321,0.0,5.0,100,0.00,,,0.00,3.000000,,2013-07-31 10:02:00,
2013-07-31 03:32:00,54.0,54.0,-100.00,NW,322,0.0,5.0,100,0.00,,,0.00,4.000000,,2013-07-31 10:32:00,
2013-07-31 03:44:00,54.0,54.0,-100.00,NW,322,0.0,5.0,100,0.00,,,0.00,4.000000,,2013-07-31 10:44:00,
2013-07-31 03:52:00,54.0,54.0,-100.00,NW,322,0.0,5.0,100,0.00,,,0.00,4.000000,,2013-07-31 10:52:00,
2013-07-31 04:03:00,54.0,54.0,-100.00,NW,322,0.0,5.0,100,0.00,,,0.00,4.000000,,2013-07-31 11:03:00,
2013-07-31 04:33:00,54.0,54.0,-100.00,NW,325,2.0,5.0,100,0.00,,,0.00,4.000000,,2013-07-31 11:33:00,
2013-07-31 04:43:00,54.0,54.0,-100.00,NW,325,2.0,5.0,100,0.00,,,0.00,4.000000,,2013-07-31 11:43:00,
2013-07-31 04:53:00,54.0,54.0,-100.00,NW,325,2.0,5.0,100,0.00,,,0.00,4.000000,,2013-07-31 11:53:00,
2013-07-31 05:02:00,54.0,54.0,-100.00,NW,325,2.0,5.0,100,0.00,,,0.00,4.000000,,2013-07-31 12:02:00,
2013-07-31 05:33:00,55.0,55.0,-100.00,NNW,343,2.0,7.0,100,0.00,,,0.00,4.000000,,2013-07-31 12:33:00,
2013-07-31 05:43:00,55.0,55.0,-100.00,NNW,343,2.0,7.0,100,0.00,,,0.00,4.000000,,2013-07-31 12:43:00,
2013-07-31 05:52:00,55.0,55.0,-100.00,NNW,343,2.0,7.0,100,0.00,,,0.00,4.000000,,2013-07-31 12:52:00,
2013-07-31 06:02:00,55.0,55.0,-100.00,NNW,343,2.0,7.0,100,0.00,,,0.00,4.000000,,2013-07-31 13:02:00,
2013-07-31 06:43:00,56.0,56.0,-100.00,North,350,3.0,9.0,100,0.00,,,0.00,3.000000,,2013-07-31 13:43:00,
2013-07-31 06:53:00,56.0,56.0,-100.00,North,350,3.0,9.0,100,0.00,,,0.00,3.000000,,2013-07-31 13:53:00,
2013-07-31 07:02:00,56.0,56.0,-100.00,North,350,3.0,9.0,100,0.00,,,0.00,3.000000,,2013-07-31 14:02:00,
2013-07-31 07:43:00,55.0,55.0,-100.00,WNW,284,0.0,8.0,100,0.00,,,0.00,9.000000,,2013-07-31 14:43:00,
2013-07-31 07:53:00,55.0,55.0,-100.00,WNW,284,0.0,8.0,100,0.00,,,0.00,9.000000,,2013-07-31 14:53:00,
2013-07-31 08:02:00,55.0,55.0,-100.00,WNW,284,0.0,8.0,100,0.00,,,0.00,9.000000,,2013-07-31 15:02:00,
2013-07-31 08:44:00,54.0,54.0,-100.00,WNW,283,0.0,4.0,100,0.00,,,0.00,36.000000,,2013-07-31 15:44:00,
2013-07-31 08:53:00,54.0,54.0,-100.00,WNW,283,0.0,4.0,100,0.00,,,0.00,36.000000,,2013-07-31 15:53:00,
2013-07-31 09:02:00,54.0,54.0,-100.00,WNW,283,0.0,4.0,100,0.00,,,0.00,36.000000,,2013-07-31 16:02:00,
2013-07-31 09:33:00,57.0,57.0,-100.00,NNW,348,2.0,8.0,100,0.00,,,0.00,106.000000,,2013-07-31 16:33:00,
2013-07-31 09:44:00,57.0,57.0,-100.00,NNW,348,2.0,8.0,100,0.00,,,0.00,106.000000,,2013-07-31 16:44:00,
2013-07-31 09:52:00,57.0,57.0,-100.00,NNW,348,2.0,8.0,100,0.00,,,0.00,106.000000,,2013-07-31 16:52:00,
2013-07-31 10:02:00,57.0,57.0,-100.00,NNW,348,2.0,8.0,100,0.00,,,0.00,106.000000,,2013-07-31 17:02:00,
2013-07-31 10:33:00,59.0,56.0,-100.00,NW,313,4.0,6.0,91,0.00,,,0.00,192.000000,,2013-07-31 17:33:00,
2013-07-31 10:43:00,59.0,56.0,-100.00,NW,313,4.0,6.0,91,0.00,,,0.00,192.000000,,2013-07-31 17:43:00,
2013-07-31 10:53:00,59.0,56.0,-100.00,NW,313,4.0,6.0,91,0.00,,,0.00,192.000000,,2013-07-31 17:53:00,
2013-07-31 11:02:00,59.0,56.0,-100.00,NW,313,4.0,6.0,91,0.00,,,0.00,192.000000,,2013-07-31 18:02:00,
2013-07-31 11:23:00,58.0,57.0,-100.00,NW,316,3.0,11.0,95,0.00,,,0.00,279.000000,,2013-07-31 18:23:00,
2013-07-31 11:33:00,58.0,57.0,-100.00,NW,316,3.0,11.0,95,0.00,,,0.00,279.000000,,2013-07-31 18:33:00,
2013-07-31 11:43:00,58.0,57.0,-100.00,NW,316,3.0,11.0,95,0.00,,,0.00,279.000000,,2013-07-31 18:43:00,
2013-07-31 11:52:00,58.0,57.0,-100.00,NW,316,3.0,11.0,95,0.00,,,0.00,279.000000,,2013-07-31 18:52:00,
2013-07-31 12:02:00,58.0,57.0,-100.00,NW,316,3.0,11.0,95,0.00,,,0.00,279.000000,,2013-07-31 19:02:00,
2013-07-31 12:33:00,60.0,58.0,-100.00,NNW,343,5.0,9.0,94,0.00,,,0.00,272.000000,,2013-07-31 19:33:00,
2013-07-31 12:43:00,60.0,58.0,-100.00,NNW,343,5.0,9.0,94,0.00,,,0.00,272.000000,,2013-07-31 19:43:00,
2013-07-31 12:53:00,60.0,58.0,-100.00,NNW,343,5.0,9.0,94,0.00,,,0.00,272.000000,,2013-07-31 19:53:00,
2013-07-31 13:02:00,60.0,58.0,-100.00,NNW,343,5.0,9.0,94,0.00,,,0.00,272.000000,,2013-07-31 20:02:00,
2013-07-31 13:43:00,59.0,57.0,-100.00,NW,322,6.0,12.0,93,0.00,,,0.00,247.000000,,2013-07-31 20:43:00,
2013-07-31 13:53:00,59.0,57.0,-100.00,NW,322,6.0,12.0,93,0.00,,,0.00,247.000000,,2013-07-31 20:53:00,
2013-07-31 14:02:00,59.0,57.0,-100.00,NW,322,6.0,12.0,93,0.00,,,0.00,247.000000,,2013-07-31 21:02:00,
2013-07-31 14:43:00,58.0,56.0,-100.00,WNW,300,5.0,9.0,93,0.00,,,0.00,348.000000,,2013-07-31 21:43:00,
2013-07-31 14:53:00,58.0,56.0,-100.00,WNW,300,5.0,9.0,93,0.00,,,0.00,348.000000,,2013-07-31 21:53:00,
2013-07-31 15:02:00,58.0,56.0,-100.00,WNW,300,5.0,9.0,93,0.00,,,0.00,348.000000,,2013-07-31 22:02:00,
2013-07-31 15:22:00,58.0,56.0,-100.00,WNW,296,3.0,10.0,94,0.00,,,0.00,325.000000,,2013-07-31 22:22:00,
2013-07-31 15:33:00,58.0,56.0,-100.00,WNW,296,3.0,10.0,94,0.00,,,0.00,325.000000,,2013-07-31 22:33:00,
2013-07-31 15:43:00,58.0,56.0,-100.00,WNW,296,3.0,10.0,94,0.00,,,0.00,325.000000,,2013-07-31 22:43:00,
2013-07-31 15:53:00,58.0,56.0,-100.00,WNW,296,3.0,10.0,94,0.00,,,0.00,325.000000,,2013-07-31 22:53:00,
2013-07-31 16:02:00,58.0,56.0,-100.00,WNW,296,3.0,10.0,94,0.00,,,0.00,325.000000,,2013-07-31 23:02:00,
2013-07-31 16:32:00,59.0,59.0,-100.00,West,277,2.0,8.0,99,0.00,,,0.00,185.000000,,2013-07-31 23:32:00,
2013-07-31 16:42:00,59.0,59.0,-100.00,West,277,2.0,8.0,99,0.00,,,0.00,185.000000,,2013-07-31 23:42:00,
2013-07-31 16:52:00,59.0,59.0,-100.00,West,277,2.0,8.0,99,0.00,,,0.00,185.000000,,2013-07-31 23:52:00,
2013-07-31 17:02:00,59.0,59.0,-100.00,West,277,2.0,8.0,99,0.00,,,0.00,185.000000,,2013-08-01 00:02:00,
2013-07-31 17:43:00,58.0,58.0,-100.00,WNW,284,1.0,7.0,100,0.00,,,0.00,139.000000,,2013-08-01 00:43:00,
2013-07-31 17:52:00,58.0,58.0,-100.00,WNW,284,1.0,7.0,100,0.00,,,0.00,139.000000,,2013-08-01 00:52:00,
2013-07-31 18:02:00,58.0,58.0,-100.00,WNW,284,1.0,7.0,100,0.00,,,0.00,139.000000,,2013-08-01 01:02:00,
2013-07-31 18:33:00,56.0,56.0,-100.00,SW,230,0.0,5.0,100,0.00,,,0.00,95.000000,,2013-08-01 01:33:00,
2013-07-31 18:43:00,56.0,56.0,-100.00,SW,230,0.0,5.0,100,0.00,,,0.00,95.000000,,2013-08-01 01:43:00,
2013-07-31 18:53:00,56.0,56.0,-100.00,SW,230,0.0,5.0,100,0.00,,,0.00,95.000000,,2013-08-01 01:53:00,
2013-07-31 19:02:00,56.0,56.0,-100.00,SW,230,0.0,5.0,100,0.00,,,0.00,95.000000,,2013-08-01 02:02:00,
2013-07-31 19:32:00,57.0,57.0,-100.00,WSW,244,0.0,4.0,100,0.00,,,0.00,69.000000,,2013-08-01 02:32:00,
2013-07-31 19:43:00,57.0,57.0,-100.00,WSW,244,0.0,4.0,100,0.00,,,0.00,69.000000,,2013-08-01 02:43:00,
2013-07-31 19:52:00,57.0,57.0,-100.00,WSW,244,0.0,4.0,100,0.00,,,0.00,69.000000,,2013-08-01 02:52:00,
2013-07-31 20:02:00,57.0,57.0,-100.00,WSW,244,0.0,4.0,100,0.00,,,0.00,69.000000,,2013-08-01 03:02:00,
2013-07-31 20:32:00,55.0,55.0,-100.00,SW,227,0.0,4.0,100,0.00,,,0.00,29.000000,,2013-08-01 03:32:00,
2013-07-31 20:43:00,55.0,55.0,-100.00,SW,227,0.0,4.0,100,0.00,,,0.00,29.000000,,2013-08-01 03:43:00,
2013-07-31 20:53:00,55.0,55.0,-100.00,SW,227,0.0,4.0,100,0.00,,,0.00,29.000000,,2013-08-01 03:53:00,
2013-07-31 21:02:00,55.0,55.0,-100.00,SW,227,0.0,4.0,100,0.00,,,0.00,29.000000,,2013-08-01 04:02:00,
2013-07-31 21:43:00,56.0,56.0,-100.00,SSW,207,0.0,4.0,100,0.00,,,0.00,7.000000,,2013-08-01 04:43:00,
2013-07-31 21:53:00,56.0,56.0,-100.00,SSW,207,0.0,4.0,100,0.00,,,0.00,7.000000,,2013-08-01 04:53:00,
2013-07-31 22:02:00,56.0,56.0,-100.00,SSW,207,0.0,4.0,100,0.00,,,0.00,7.000000,,2013-08-01 05:02:00,
2013-07-31 22:33:00,56.0,56.0,-100.00,SW,219,0.0,4.0,100,0.00,,,0.00,6.000000,,2013-08-01 05:33:00,
2013-07-31 22:43:00,56.0,56.0,-100.00,SW,219,0.0,4.0,100,0.00,,,0.00,6.000000,,2013-08-01 05:43:00,
2013-07-31 22:53:00,56.0,56.0,-100.00,SW,219,0.0,4.0,100,0.00,,,0.00,6.000000,,2013-08-01 05:53:00,
2013-07-31 23:02:00,56.0,56.0,-100.00,SW,219,0.0,4.0,100,0.00,,,0.00,6.000000,,2013-08-01 06:02:00,
2013-07-31 23:33:00,56.0,56.0,-100.00,SSW,210,0.0,0.0,100,0.00,,,0.00,6.000000,,2013-08-01 06:33:00,
2013-07-31 23:43:00,56.0,56.0,-100.00,SSW,210,0.0,0.0,100,0.00,,,0.00,6.000000,,2013-08-01 06:43:00,
2013-07-31 23:52:00,56.0,56.0,-100.00,SSW,210,0.0,0.0,100,0.00,,,0.00,6.000000,,2013-08-01 06:52:00,